Other Public Products
Issued by NWS Charleston, SC

Home | Current Version | Previous Version | Text Only | Print | Product List | Glossary On
Versions: 1 2 3 4 5 6 7 8 9 10 11 12 13 14 15 16 17 18 19 20 21 22 23 24 25 26 27 28 29 30 31 32 33 34 35 36 37 38 39 40 41 42 43 44 45 46 47 48 49 50
866
FPUS82 KCHS 200627
OPUCHS

TEST...KCHS/KSAV Gateway Observations...TEST
National Weather Service Charleston SC
100 AM EST MON NOV 20 2017

NOTE: "fair" indicates few or no clouds below 12,000 feet with no
significant weather and/or obstructions to visibility.

SCZ050-WAZ558-NCZ071-TXZ119-213-PAZ071-DCZ001-FLZ074-172-MI076-
NYZ176-178-MAZ016-IL014-TNZ027-NJZ106-GAZ044-MD014-200700-

...Gateway Observations for Charleston International...

CITY           SKY/WX    TMP DP  RH WIND       PRES   REMARKS
Chas Airport   CLEAR     46  35  65 N10       30.12R
6HR MIN TEMP:  40; 6HR MAX TEMP:  54;

Seattle        LGT RAIN  43  41  93 CALM      29.62F FOG
6HR MIN TEMP:  42; 6HR MAX TEMP:  45; 6HR PCP:  0.49;

Charlotte      CLEAR     31  27  85 N5        30.11R WCI  26
6HR MIN TEMP:  30; 6HR MAX TEMP:  46;

Dallas DFW     PTCLDY    45  34  65 S5        30.20F
6HR MIN TEMP:  45; 6HR MAX TEMP:  57;

Dallas Love    CLOUDY    47  31  53 SE6       30.22F
6HR MIN TEMP:  46; 6HR MAX TEMP:  58;

Philladelphia  PTCLDY    40  25  55 W15       29.91R WCI  32
6HR MIN TEMP:  39; 6HR MAX TEMP:  47;

Wash National  CLOUDY    43  28  55 NW10      30.01R
6HR MIN TEMP:  43; 6HR MAX TEMP:  46;

Baltimore      MOCLDY    41  26  55 W15G21    29.98R
6HR MIN TEMP:  39; 6HR MAX TEMP:  43;

Miami          PTCLDY    73  68  84 CALM      29.98S
6HR MIN TEMP:  73; 6HR MAX TEMP:  77;

Detroit        CLOUDY    30  22  72 SW9       30.02S WCI  22
6HR MIN TEMP:  30; 6HR MAX TEMP:  32;

Newark         PTCLDY    40  29  64 W20G25    29.83R WCI  30
6HR MIN TEMP:  39; 6HR MAX TEMP:  47; 6HR PCP: TRACE;

Laguardia      MOCLDY    42  28  57 W16       29.81R
6HR MIN TEMP:  40; 6HR MAX TEMP:  47; 6HR PCP: TRACE;

J F K          PTCLDY    41  26  55 W17G24    29.83R
6HR MIN TEMP:  40; 6HR MAX TEMP:  47;

Boston Logan   PTCLDY    38  24  57 W18G26    29.66R WCI  28
6HR MIN TEMP:  38; 6HR MAX TEMP:  41;

Ft. Lauderdale CLEAR     71  69  93 NW5       29.97S
6HR MIN TEMP:  71; 6HR MAX TEMP:  77;

Chicago O`Hare PTCLDY    30  21  69 SW10      30.04F WCI  21
6HR MIN TEMP:  30; 6HR MAX TEMP:  32;

Chicago Midway PTCLDY    32  22  66 SW10      30.06F WCI  24
6HR MIN TEMP:  30; 6HR MAX TEMP:  33;

Houston Bush   MOCLDY    47  40  76 N3        30.23F
6HR MIN TEMP:  44; 6HR MAX TEMP:  58;

Houston Hobby  CLOUDY    50  39  66 CALM      30.22F
6HR MIN TEMP:  50; 6HR MAX TEMP:  59;

Nashville      CLEAR     30  25  81 S5        30.26S WCI  25
6HR MIN TEMP:  30; 6HR MAX TEMP:  40;

Atlanta        CLEAR     37  29  72 NW7       30.16S WCI  32
6HR MIN TEMP:  37; 6HR MAX TEMP:  47;


$$

GAZ044-118-TXZ119-213-NCZ071-DCZ001-MDZ014-506-PAZ021-071-NJZ106-
NYZ176-178-MAZ106-OHZ011-021-055-MIZ076-KYZ091-ILZ014-INZ047-
MNZ060-ONZ431-200700-

...Gateway Observations for Savannah International...

CITY           SKY/WX    TMP DP  RH WIND       PRES   REMARKS
Savannah Arpt  CLEAR     43  34  70 NW5       30.14R
6HR MIN TEMP:  42; 6HR MAX TEMP:  55;

Atlanta        CLEAR     37  29  72 NW7       30.16S WCI  32
6HR MIN TEMP:  37; 6HR MAX TEMP:  47;

Charlotte      CLEAR     31  27  85 N5        30.11R WCI  26
6HR MIN TEMP:  30; 6HR MAX TEMP:  46;

Dallas DFW     PTCLDY    45  34  65 S5        30.20F
6HR MIN TEMP:  45; 6HR MAX TEMP:  57;

Houston Bush   MOCLDY    47  40  76 N3        30.23F
6HR MIN TEMP:  44; 6HR MAX TEMP:  58;

Wash National  CLOUDY    43  28  55 NW10      30.01R
6HR MIN TEMP:  43; 6HR MAX TEMP:  46;

Wash Dulles    CLOUDY    41  28  60 NW13      30.00R
6HR MIN TEMP:  40; 6HR MAX TEMP:  44;

Baltimore      MOCLDY    41  26  55 W15G21    29.98R
6HR MIN TEMP:  39; 6HR MAX TEMP:  43;

Philadelphia   PTCLDY    40  25  55 W15       29.91R WCI  32
6HR MIN TEMP:  39; 6HR MAX TEMP:  47;

Newark         PTCLDY    40  29  64 W20G25    29.83R WCI  30
6HR MIN TEMP:  39; 6HR MAX TEMP:  47; 6HR PCP: TRACE;

Laguardia      MOCLDY    42  28  57 W16       29.81R
6HR MIN TEMP:  40; 6HR MAX TEMP:  47; 6HR PCP: TRACE;

J F K          PTCLDY    41  26  55 W17G24    29.83R
6HR MIN TEMP:  40; 6HR MAX TEMP:  47;

Boston         PTCLDY    38  24  57 W18G26    29.66R WCI  28
6HR MIN TEMP:  38; 6HR MAX TEMP:  41;

Pittsburg      CLOUDY    32  20  61 W16G22    30.02R WCI  21
6HR MIN TEMP:  32; 6HR MAX TEMP:  34; 6HR PCP: TRACE;

Akron          CLOUDY    31  20  63 W10       30.05R WCI  22
6HR MIN TEMP:  30; 6HR MAX TEMP:  33; 6HR PCP: TRACE;

Cleveland      CLOUDY    32  24  72 W15       30.07R WCI  22
6HR MIN TEMP:  32; 6HR MAX TEMP:  35; 6HR PCP: TRACE;

Cincinnati     CLEAR     28  23  81 SW3       30.17R
6HR MIN TEMP:  27; 6HR MAX TEMP:  32;

Columbus       CLEAR     26  24  89 SW7       30.15S WCI  19
Detroit        CLOUDY    30  22  72 SW9       30.02S WCI  22
6HR MIN TEMP:  30; 6HR MAX TEMP:  32;

Chicago O`Hare PTCLDY    30  21  69 SW10      30.04F WCI  21
6HR MIN TEMP:  30; 6HR MAX TEMP:  32;

Minneapolis    MOCLDY    37  27  67 SW7       29.79S WCI  32
6HR MIN TEMP:  36; 6HR MAX TEMP:  39;

Indianapolis   CLEAR     26  21  81 SW8       30.17R WCI  18
6HR MIN TEMP:  25; 6HR MAX TEMP:  30;

Toronto Canada CLOUDY    30  21  69 W14       29.86R WCI  20

$$




USA.gov is the U.S. government's official web portal to all federal, state and local government web resources and services.